Regional Weather Roundup
Issued by NWS

Home | Current Version | Previous Version | Text Only | Print | Product List | Glossary On
Versions: 1 2 3 4 5 6 7 8 9 10 11 12 13 14 15 16 17 18 19 20 21 22 23 24 25 26 27 28
000
ASUS42 KTBW 240815
RWRFL
FLORIDA REGIONAL WEATHER ROUNDUP
NATIONAL WEATHER SERVICE TAMPA BAY RUSKIN FL
300 AM EST TUE JAN 24 2017

NOTE: "FAIR" INDICATES FEW OR NO CLOUDS BELOW 12,000 FEET WITH NO
SIGNIFICANT WEATHER AND/OR OBSTRUCTIONS TO VISIBILITY.

FLZ001>010-012>015-112-114-115-240900-
PANHANDLE FLORIDA

CITY           SKY/WX    TMP DP  RH WIND       PRES   REMARKS
PENSACOLA      CLEAR     52  45  77 NW7       29.85S
PENSACOLA NAS  CLEAR     52  45  77 NW5       29.86R
MILTON NAS     LGT RAIN  50  43  77 NW9       29.85
CRESTVIEW      CLEAR     51  43  74 N13       29.85S
DUKE FIELD     FAIR      50  44  79 NW8       29.83S
VALPARAISO     CLEAR     48  45  88 NW7       29.85R WCI  45
MARY ESTHER    CLEAR     52  41  66 N12       29.84S
TRI COUNTY     FAIR      51  48  89 CALM      29.83R
PANAMA CITY    FAIR      53  46  77 NW9       29.82S
TYNDALL AFB    CLEAR     56  47  73 NW13      29.83R
APALACHICOLA   CLEAR     57  49  74 NW9       29.81S

STATION/POSITION SKY/WX   TEMP    WIND        PRES    WAVE   SWELL
                          AIR SEA DIR/SP/G            HT/PER HT/PER
                          (F)     (DEG/KT/KT) (MB)    (FT/S) (FT/S)
30.1N   87.6W              59 64  340/ 14/ 16 1011.1R   3/ 6   2/ 6
28.8N   86.0W              69 74              1010.0    9/ 8   7/ 8
PANAMA CITY BEAC           56 65  310/ 10/ 13 1010.5R
TOWER C                    62     330/ 19/ 21 1009.6R
28.5N   84.5W              69 70  310/ 17/ 21 1008.9   11/ 9   8/ 9

$$
FLZ011-016>038-118-127-128-134-139-239-240900-
NORTH FLORIDA

CITY           SKY/WX    TMP DP  RH WIND       PRES   REMARKS
MARIANNA       CLEAR     53  47  79 NW8       29.81R
TALLAHASSEE    CLEAR     53  48  83 NW6       29.80R
PERRY          CLEAR     53  47  78 NW6       29.79R
CROSS CITY     CLEAR     55  46  71 NW8       29.78S
LAKE CITY      FAIR      54  48  82 W7        29.76R
GAINESVILLE    CLEAR     56  46  69 W8        29.76R
WILLISTON      CLEAR     57  48  72 W5        29.78S
PALATKA        FAIR      55  48  76 W9        29.75S
MAYPORT NAS    CLEAR     58  48  69 W14       29.70R
JACKSONVILLE   CLEAR     56  48  74 W12       29.71R
JAX NAS        CLEAR     58  47  66 W13       29.73R
FERNANDINA BEA FAIR      59  48  67 W14       29.68R
ST AUGUSTINE   CLEAR     59  48  67 W10G17    29.73R

STATION/POSITION SKY/WX   TEMP    WIND        PRES    WAVE   SWELL
                          AIR SEA DIR/SP/G            HT/PER HT/PER
                          (F)     (DEG/KT/KT) (MB)    (FT/S) (FT/S)
SHELL POINT      NOT AVBL
KEATON BEACH               59     310/ 15/ 18 1008.3R
CEDAR KEY                  63     310/ 13/ 19 1008.7R
FERNANDINA                 58 65  290/ 14/ 21 1006.0R
30.7N   81.3W                 62                N/A     3/ 4   2/13
MAYPORT                    58 64  280/ 12/ 16 1006.0R
31.4N   80.9W              58 60  280/ 23/ 27 1002.6    4/ 4   2/14
ST AUGUSTINE               58 63  290/ 10/ 13 1007.1R

$$
FLZ040-043>046-052-053-057-058-063-144-240900-
INTERIOR CENTRAL FLORIDA

CITY           SKY/WX    TMP DP  RH WIND       PRES   REMARKS
OCALA          CLEAR     57  45  62 W7        29.77S
THE VILLAGES     N/A     59  55  88 MISG      29.68S
LEESBURG       CLEAR     60  49  66 NW10G16   29.78R
SANFORD        CLEAR     59  49  69 NW13      29.76R
ORLANDO EXEC   CLEAR     62  50  64 NW15G23   29.77R
ORLANDO INTL   CLEAR     61  50  67 NW13      29.77R
KISSIMMEE      CLEAR     59  52  77 NW9       29.78R
WINTER HAVEN   CLEAR     61  52  72 NW10      29.79R
LAKELAND       CLEAR     61  54  77 NW8       29.79S
BARTOW         FAIR      61  54  77 W10       29.79R
OKEECHOBEE     CLEAR     54  52  94 W7        29.79S

$$
FLZ041-047-054-059-064-141-147-240900-
EAST CENTRAL FLORIDA

CITY           SKY/WX    TMP DP  RH WIND       PRES   REMARKS
DAYTONA BEACH  CLEAR     58  49  72 W12       29.74R
DELAND         CLEAR     57  50  77 W9        29.75R
JFK SPACE CTR  CLEAR     60  51  71 NW15      29.73R
CAPE CANAVERAL CLEAR     61  52  72 NW15      29.74R
PATRICK AFB    CLEAR     60  55  85 NW14      29.75R
MELBOURNE      CLEAR     56  54  93 W9        29.76R
VERO BEACH     CLEAR     56  53  90 W6        29.76S
FT PIERCE      CLEAR     56  53  90 W8        29.76S
STUART         CLEAR     61  55  82 W8        29.79S

STATION/POSITION SKY/WX   TEMP    WIND        PRES    WAVE   SWELL
                          AIR SEA DIR/SP/G            HT/PER HT/PER
                          (F)     (DEG/KT/KT) (MB)    (FT/S) (FT/S)
TRIDENT PIER               62 70  270/  9/ 14 1008.4R
28.4N   80.5W                 73                N/A     2/13
27.5N   80.2W                 73                N/A     4/13   2/13

$$
FLZ050-056-061-142-242-148-248-149-249-151-251-155-255-
160-260-240900-
WEST CENTRAL FLORIDA

CITY           SKY/WX    TMP DP  RH WIND       PRES   REMARKS
CRYSTAL RIVER  FAIR      61  52  72 NW6       29.79R
INVERNESS      FAIR      61  52  72 NW3       29.79S
BROOKSVILLE    CLEAR     63  52  67 NW13      29.79S
CLEARWATER AIR FAIR      63  55  77 NW14G20   29.79S
ST PETE CLEARW CLEAR     65  55  70 NW15      29.80R
TAMPA INTL     CLEAR     64  53  67 NW8       29.80S
TAMPA EXEC     CLEAR     64  52  63 NW7       29.80S
PLANT CITY     CLEAR     63  55  77 NW8       29.81R
MACDILL AFB    CLEAR     64  59  82 CALM      29.80R
PETER O KNIGHT MOCLDY    64  55  72 N6        29.80R
ST PETERSBURG  CLEAR     65  57  75 N8        29.78S
SARASOTA       CLEAR     65  56  72 NW15      29.79S
VENICE         FAIR      68  59  73 NW18G24   29.81S

STATION/POSITION SKY/WX   TEMP    WIND        PRES    WAVE   SWELL
                          AIR SEA DIR/SP/G            HT/PER HT/PER
                          (F)     (DEG/KT/KT) (MB)    (FT/S) (FT/S)
27.3N   84.2W                 76                N/A    12/12   7/12
CLEARWATER BEACH           67 68  310/ 20/ 24 1009.0F
MIDDLE TAMPA BAY           66     340/ 15/ 17 1009.3R
VENICE                     68 69  320/ 21/ 23 1009.0R

$$
FLZ066-069-070-075>078-162-262-165-265-240900-
SOUTHWEST FLORIDA AND KEYS

CITY           SKY/WX    TMP DP  RH WIND       PRES   REMARKS
PUNTA GORDA    CLEAR     63  56  78 NW9       29.82S
FT MYERS       CLEAR     65  58  78 NW9       29.81S
SOUTHWEST INTL CLEAR     65  57  75 W6        29.81S
NAPLES         MOCLDY    68  59  73 NW12G20   29.81F
MARCO ISLAND   PTCLDY    66  57  72 NW10G20   29.82R
MARATHON       PTCLDY    73  61  65 W17G30    29.83S
KEY WEST NAS   MOCLDY    70  59  68 NW17      29.85S
KEY WEST INTL  PTCLDY    71  60  68 NW17      29.86

STATION/POSITION SKY/WX   TEMP    WIND        PRES    WAVE   SWELL
                          AIR SEA DIR/SP/G            HT/PER HT/PER
                          (F)     (DEG/KT/KT) (MB)    (FT/S) (FT/S)
NAPLES                        70              1009.3F
26.0N   85.6W              71 74  310/ 14/ 17 1011.9F  11/11  10/11
DRY TORTUGAS               72     330/ 19/ 22 1011.3R
SAND KEY                   71     330/ 22/ 25 1011.5S
LONG KEY                   71 72  320/ 25/ 28 1009.9R
MOLASSES REEF              70 72  320/ 22/ 25 1009.6R

$$
FLZ067-068-071>074-168-172>174-240900-
SOUTHEAST FLORIDA

CITY           SKY/WX    TMP DP  RH WIND       PRES   REMARKS
W PALM BEACH   CLEAR     61  55  81 W10       29.79S
FT LAUDER-EXEC CLEAR     63  55  75 W8        29.80S
FT LAUDERDALE  CLEAR     63  57  81 W9        29.79S
POMPANO BEACH  CLEAR     62  56  80 W9        29.79S
PEMBROKE PINES CLEAR     62  56  80 W9        29.82S
OPA LOCKA      CLEAR     63  57  81 W10       29.82R
MIAMI          CLEAR     65  57  75 NW6       29.81S
WEST KENDALL   PTCLDY    59  56  89 NW5       29.81F
HOMESTEAD      CLEAR     62  60  93 NW5       29.81S

STATION/POSITION SKY/WX   TEMP    WIND        PRES    WAVE   SWELL
                          AIR SEA DIR/SP/G            HT/PER HT/PER
                          (F)     (DEG/KT/KT) (MB)    (FT/S) (FT/S)
PORT EVERGLADES            64     290/ 12/ 16 1008.7S
VIRGINIA KEY               65 79  300/  7/ 12 1009.8R
LAKE WORTH                 63 74  290/  9/ 13 1008.2F
FOWEY ROCKS                66 73  300/ 18/ 19 1010.3R

$$





USA.gov is the U.S. government's official web portal to all federal, state and local government web resources and services.